This is the latest recevied weather packets stored in our database for station/object DL2AMT-9. If no packets are shown the sender has not sent any weather packets the latest 1 day(s).
| Time | Temp. | Humidity | Pressure | Rain* | Wind** | Luminosity | Snow |
|---|---|---|---|---|---|---|---|
| 1777985911 | 32.22° C | 35% | 962.5 hPa | - | - | - | - |
| 1777985600 | 31.67° C | 35% | 962.5 hPa | - | - | - | - |
| 1777985300 | 31.11° C | 35% | 962.6 hPa | - | - | - | - |
| 1777984999 | 31.11° C | 35% | 962.6 hPa | - | - | - | - |
| 1777984699 | 31.11° C | 35% | 962.7 hPa | - | - | - | - |
| 1777984399 | 31.11° C | 35% | 962.7 hPa | - | - | - | - |
| 1777984099 | 31.11° C | 35% | 962.8 hPa | - | - | - | - |
| 1777983799 | 31.11° C | 36% | 962.9 hPa | - | - | - | - |
| 1777983499 | 31.11° C | 36% | 963 hPa | - | - | - | - |
| 1777983199 | 30.56° C | 37% | 962.9 hPa | - | - | - | - |
| 1777982899 | 30.56° C | 36% | 962.9 hPa | - | - | - | - |
| 1777982598 | 30.56° C | 36% | 963 hPa | - | - | - | - |
| 1777982298 | 30.56° C | 37% | 963.1 hPa | - | - | - | - |
| 1777981998 | 30° C | 36% | 963.2 hPa | - | - | - | - |
| 1777981698 | 30° C | 36% | 963.2 hPa | - | - | - | - |
| 1777981398 | 30° C | 36% | 963.2 hPa | - | - | - | - |
| 1777981097 | 30° C | 36% | 963.1 hPa | - | - | - | - |
| 1777980797 | 30° C | 37% | 963.3 hPa | - | - | - | - |
| 1777980497 | 30.56° C | 37% | 963.2 hPa | - | - | - | - |
| 1777980197 | 30.56° C | 37% | 963.3 hPa | - | - | - | - |
| 1777979897 | 30.56° C | 37% | 963.3 hPa | - | - | - | - |
| 1777979597 | 30° C | 38% | 963.4 hPa | - | - | - | - |
| 1777979297 | 29.44° C | 37% | 963.4 hPa | - | - | - | - |
| 1777978997 | 29.44° C | 37% | 963.4 hPa | - | - | - | - |
| 1777978697 | 29.44° C | 37% | 963.5 hPa | - | - | - | - |
* Rain since midnight (hover to see other rain measurements)
** Current wind speed in m/s (hover to see current wind gust speed)